Ogden, UT

2:34 PM MDT on September 18, 2019 (GMT -0600)
Ogden-Hinckley

Weather History for KOGD - July, 2019

Change the Weather History Date:

Thursday, July 18, 2019

  Actual Average Record
Temperature  
Mean Temperature 80 °F -  
Max Temperature 93 °F 93 °F 102 °F (1931)
Min Temperature 66 °F 61 °F 49 °F (1944)
Cooling Degree Days 14    
Growing Degree Days 30 (Base 50)    
Moisture  
Dew Point 35 °F    
Average Humidity 23    
Maximum Humidity 39    
Minimum Humidity 10    
Precipitation  
Precipitation 0.00 in - - ()
Sea Level Pressure  
Sea Level Pressure 29.73 in    
Wind  
Wind Speed 9 mph (South)    
Max Wind Speed 13 mph    
Max Gust Speed 16 mph    
Visibility 10 miles    
Events      
Averages and records for this station are not official NWS values.
T = Trace of Precipitation, MM = Missing Value Source: NWS Daily Summary

Daily Weather History Graph

Daily Weather History Graph

Search for Another Location

Airport or City:

Astronomy

Jul. 18, 2019 Rise Set
Actual Time 6:10 AM MDT 8:57 PM MDT
Civil Twilight 5:38 AM MDT 9:29 PM MDT
Nautical Twilight 4:57 AM MDT 10:10 PM MDT
Astronomical Twilight 4:10 AM MDT 10:57 PM MDT
Moon 10:24 PM MDT 7:43 AM MDT
Length of Visible Light 15h 51m
Length of Day
14h 46m
Full, 97% of the Moon is Illuminated
Jul 18
Full
Jul 24
Last Quarter
Jul 31
New
Aug 7
First Quarter
Aug 15
Full

Hourly Weather History & Observations

Time (MDT) Temp. Dew Point Humidity Pressure Visibility Wind Dir Wind Speed Gust Speed Precip Events Conditions
12:53 AM 72.0 °F 42.1 °F 34% 29.72 in 10.0 mi South 11.5 mph - N/A   Clear
1:53 AM 71.1 °F 42.1 °F 35% 29.72 in 10.0 mi South 12.7 mph - N/A   Clear
2:53 AM 68.0 °F 42.1 °F 39% 29.74 in 10.0 mi SE 3.5 mph - N/A   Clear
3:53 AM 68.0 °F 39.9 °F 36% 29.75 in 10.0 mi South 9.2 mph - N/A   Clear
4:53 AM 66.0 °F 39.9 °F 38% 29.75 in 10.0 mi SSE 10.4 mph - N/A   Clear
5:53 AM 66.0 °F 37.9 °F 36% 29.77 in 10.0 mi South 12.7 mph - N/A   Clear
6:53 AM 66.0 °F 39.0 °F 37% 29.78 in 10.0 mi South 11.5 mph - N/A   Clear
7:53 AM 69.1 °F 39.0 °F 33% 29.81 in 10.0 mi South 11.5 mph - N/A   Clear
8:53 AM 75.0 °F 39.0 °F 27% 29.80 in 10.0 mi SSE 8.1 mph - N/A   Clear
9:53 AM 81.0 °F 36.0 °F 20% 29.81 in 10.0 mi Variable 3.5 mph - N/A   Clear
10:53 AM 82.9 °F 37.0 °F 19% 29.81 in 10.0 mi WSW 5.8 mph - N/A   Clear
11:53 AM 86.0 °F 34.0 °F 16% 29.81 in 10.0 mi WSW 5.8 mph - N/A   Clear
12:53 PM 88.0 °F 28.9 °F 12% 29.79 in 10.0 mi SSW 10.4 mph 16.1 mph N/A   Clear
1:53 PM 91.0 °F 30.0 °F 11% 29.77 in 10.0 mi WSW 9.2 mph - N/A   Clear
2:53 PM 91.0 °F 30.0 °F 11% 29.75 in 10.0 mi SW 10.4 mph - N/A   Clear
3:53 PM 91.9 °F 28.9 °F 11% 29.73 in 10.0 mi SW 10.4 mph - N/A   Clear
4:53 PM 91.9 °F 30.0 °F 11% 29.71 in 10.0 mi WSW 8.1 mph - N/A   Clear
5:53 PM 93.0 °F 28.0 °F 10% 29.68 in 10.0 mi Variable 5.8 mph - N/A   Clear
6:53 PM 91.9 °F 27.0 °F 10% 29.66 in 10.0 mi WSW 3.5 mph - N/A   Clear
7:53 PM 91.9 °F 30.0 °F 11% 29.63 in 10.0 mi SE 6.9 mph - N/A   Clear
8:53 PM 84.0 °F 37.0 °F 19% 29.62 in 10.0 mi SSE 5.8 mph - N/A   Clear
9:53 PM 80.1 °F 37.0 °F 21% 29.62 in 10.0 mi South 8.1 mph - N/A   Clear
10:53 PM 78.1 °F 36.0 °F 22% 29.63 in 10.0 mi South 8.1 mph - N/A   Clear
11:53 PM 75.9 °F 36.0 °F 23% 29.62 in 10.0 mi South 11.5 mph - N/A   Clear